When you browse on this site, cookies collect data to enhance your experience and personalize the content and advertising you see.
Visit our Privacy Policy to learn more. By continuing to use the site, you agree to this use of cookies and data.
  • In Hungary
  • List of Countries
  • For 7 days
  • Water Temperature
  • Satellite Maps
  • Weather Map
  • News
  • Weather Widgets
  • user-avatar
    Login

    Hourly Weather Herzogenaurach

    Today, 16 February, Saturday

    Time Temperature Precipitation Wind Pressure Humidity
    00:00 +3°C° 0 mm 2 mps 742 mmHg 77%
    01:00 +2°C° 0 mm 2 mps 742 mmHg 76%
    02:00 +3°C° 0 mm 1 mps 742 mmHg 77%
    03:00 +2°C° 0 mm 1 mps 741 mmHg 77%
    04:00 +2°C° 0 mm 1 mps 741 mmHg 78%
    05:00 +2°C° 0 mm 1 mps 741 mmHg 78%
    06:00 +2°C° 0 mm 1 mps 741 mmHg 78%
    07:00 +1°C° 0 mm 2 mps 741 mmHg 78%
    08:00 +2°C° 0 mm 2 mps 741 mmHg 72%
    09:00 +4°C° 0 mm 2 mps 741 mmHg 66%
    10:00 +5°C° 0 mm 2 mps 741 mmHg 60%
    11:00 +7°C° 0 mm 2 mps 741 mmHg 57%
    12:00 +8°C° 0 mm 2 mps 741 mmHg 54%
    13:00 +11°C° 0 mm 1 mps 741 mmHg 51%
    14:00 +11°C° 0 mm 1 mps 741 mmHg 54%
    15:00 +11°C° 0 mm 1 mps 741 mmHg 57%
    16:00 +11°C° 0 mm 1 mps 740 mmHg 60%
    17:00 +10°C° 0 mm 1 mps 740 mmHg 66%
    18:00 +8°C° 0 mm 1 mps 740 mmHg 72%
    19:00 +6°C° 0 mm 1 mps 740 mmHg 78%
    20:00 +6°C° 0 mm 1 mps 740 mmHg 79%
    21:00 +5°C° 0 mm 1 mps 740 mmHg 80%
    22:00 +5°C° 0 mm 1 mps 740 mmHg 81%
    23:00 +4°C° 0 mm 1 mps 740 mmHg 81%

    Tomorrow, 17 February, Sunday

    Time Temperature Precipitation Wind Pressure Humidity
    00:00 +4°C° 0 mm 1 mps 740 mmHg 81%
    01:00 +4°C° 0 mm 1 mps 740 mmHg 81%
    02:00 +4°C° 0 mm 1 mps 740 mmHg 81%
    03:00 +3°C° 0 mm 1 mps 740 mmHg 81%
    04:00 +3°C° 0 mm 1 mps 739 mmHg 81%
    05:00 +3°C° 0 mm 1 mps 739 mmHg 81%
    06:00 +3°C° 0 mm 1 mps 739 mmHg 80%
    07:00 +1°C° 0 mm 2 mps 739 mmHg 80%
    08:00 +3°C° 0 mm 2 mps 739 mmHg 74%
    09:00 +4°C° 0 mm 2 mps 739 mmHg 69%
    10:00 +6°C° 0 mm 2 mps 739 mmHg 63%
    11:00 +8°C° 0 mm 2 mps 739 mmHg 59%
    12:00 +9°C° 0 mm 2 mps 739 mmHg 55%
    13:00 +12°C° 0 mm 2 mps 739 mmHg 50%
    14:00 +12°C° 0 mm 2 mps 738 mmHg 53%
    15:00 +12°C° 0 mm 1 mps 738 mmHg 56%
    16:00 +12°C° 0 mm 1 mps 738 mmHg 58%
    17:00 +9°C° 0 mm 2 mps 738 mmHg 63%
    18:00 +8°C° 0 mm 2 mps 738 mmHg 69%
    19:00 +6°C° 0 mm 2 mps 738 mmHg 74%
    20:00 +5°C° 0 mm 2 mps 738 mmHg 74%
    21:00 +5°C° 0 mm 2 mps 737 mmHg 73%
    22:00 +4°C° 0 mm 2 mps 737 mmHg 73%
    23:00 +5°C° 0 mm 1 mps 737 mmHg 73%

    Day after tomorrow, 18 February, Monday

    Time Temperature Precipitation Wind Pressure Humidity
    00:00 +4°C° 0 mm 1 mps 737 mmHg 73%
    01:00 +4°C° 0 mm 1 mps 737 mmHg 73%
    02:00 +4°C° 0 mm 1 mps 737 mmHg 74%
    03:00 +3°C° 0 mm 1 mps 737 mmHg 75%
    04:00 +3°C° 0 mm 1 mps 736 mmHg 75%
    05:00 +3°C° 0 mm 1 mps 736 mmHg 76%
    06:00 +3°C° 0 mm 1 mps 736 mmHg 76%
    07:00 +2°C° 0 mm 1 mps 736 mmHg 77%
    08:00 +4°C° 0 mm 1 mps 736 mmHg 72%
    09:00 +6°C° 0 mm 1 mps 736 mmHg 68%
    10:00 +7°C° 0 mm 1 mps 736 mmHg 63%
    11:00 +9°C° 0 mm 1 mps 736 mmHg 58%
    12:00 +11°C° 0 mm 1 mps 736 mmHg 53%
    13:00 +12°C° 0 mm 1 mps 736 mmHg 48%
    14:00 +12°C° 0 mm 1 mps 735 mmHg 50%
    15:00 +11°C° 0 mm 0 mps 735 mmHg 52%
    16:00 +11°C° 0 mm 0 mps 735 mmHg 54%
    17:00 +11°C° 0 mm 1 mps 735 mmHg 60%
    18:00 +9°C° 0 mm 1 mps 735 mmHg 65%
    19:00 +7°C° 0 mm 1 mps 734 mmHg 71%
    20:00 +6°C° 0 mm 1 mps 734 mmHg 73%
    21:00 +6°C° 0 mm 1 mps 735 mmHg 75%
    22:00 +4°C° 0 mm 2 mps 735 mmHg 77%
    23:00 +4°C° 0 mm 2 mps 734 mmHg 77%

    19 February, Tuesday

    Time Temperature Precipitation Wind Pressure Humidity
    00:00 +3°C° 0 mm 2 mps 734 mmHg 77%
    01:00 +3°C° 0 mm 2 mps 734 mmHg 77%
    02:00 +3°C° 0 mm 2 mps 734 mmHg 76%
    03:00 +2°C° 0 mm 2 mps 734 mmHg 76%
    04:00 +2°C° 0 mm 2 mps 734 mmHg 76%
    05:00 +2°C° 0 mm 2 mps 734 mmHg 75%
    06:00 +2°C° 0 mm 2 mps 734 mmHg 74%
    07:00 +2°C° 0 mm 2 mps 734 mmHg 73%
    08:00 +4°C° 0 mm 2 mps 734 mmHg 69%
    09:00 +5°C° 0 mm 2 mps 735 mmHg 65%
    10:00 +7°C° 0 mm 3 mps 735 mmHg 61%
    11:00 +8°C° 0 mm 3 mps 735 mmHg 61%
    12:00 +8°C° 0 mm 4 mps 735 mmHg 62%
    13:00 +11°C° 0 mm 4 mps 734 mmHg 62%
    14:00 +10°C° 0 mm 4 mps 734 mmHg 66%
    15:00 +10°C° 0 mm 4 mps 734 mmHg 70%
    16:00 +8°C° 0 mm 4 mps 734 mmHg 74%
    17:00 +7°C° 0 mm 4 mps 735 mmHg 79%
    18:00 +7°C° 0 mm 3 mps 735 mmHg 83%
    19:00 +5°C° 0 mm 3 mps 736 mmHg 88%
    20:00 +5°C° 0 mm 3 mps 736 mmHg 90%
    21:00 +5°C° 0 mm 2 mps 736 mmHg 92%
    22:00 +4°C° 0 mm 2 mps 737 mmHg 94%
    23:00 +4°C° 0 mm 2 mps 737 mmHg 94%

    20 February, Wednesday

    Time Temperature Precipitation Wind Pressure Humidity
    00:00 +3°C° 0 mm 2 mps 737 mmHg 94%
    01:00 +3°C° 0 mm 2 mps 737 mmHg 94%
    02:00 +4°C° 0 mm 1 mps 737 mmHg 95%
    03:00 +3°C° 0 mm 1 mps 737 mmHg 95%
    04:00 +3°C° 0 mm 1 mps 737 mmHg 95%
    05:00 +3°C° 0 mm 1 mps 737 mmHg 95%
    06:00 +3°C° 0 mm 1 mps 737 mmHg 95%
    07:00 +3°C° 0 mm 1 mps 737 mmHg 95%
    08:00 +4°C° 0 mm 1 mps 738 mmHg 89%
    09:00 +4°C° 0 mm 2 mps 738 mmHg 84%
    10:00 +6°C° 0 mm 2 mps 738 mmHg 79%
    11:00 +7°C° 0 mm 2 mps 738 mmHg 73%
    12:00 +8°C° 0 mm 2 mps 738 mmHg 67%
    13:00 +10°C° 0 mm 2 mps 738 mmHg 60%
    14:00 +10°C° 0 mm 2 mps 738 mmHg 61%
    15:00 +10°C° 0 mm 2 mps 738 mmHg 61%
    16:00 +10°C° 0 mm 2 mps 737 mmHg 61%
    17:00 +8°C° 0 mm 2 mps 738 mmHg 68%
    18:00 +7°C° 0 mm 2 mps 738 mmHg 75%
    19:00 +7°C° 0 mm 1 mps 738 mmHg 82%
    20:00 +6°C° 0 mm 1 mps 738 mmHg 84%
    21:00 +6°C° 0 mm 1 mps 738 mmHg 86%
    22:00 +5°C° 0 mm 2 mps 738 mmHg 88%
    23:00 +4°C° 0 mm 2 mps 739 mmHg 89%

    21 February, Thursday

    Time Temperature Precipitation Wind Pressure Humidity
    00:00 +4°C° 0 mm 2 mps 739 mmHg 89%
    01:00 +4°C° 0 mm 2 mps 739 mmHg 90%
    02:00 +4°C° 0 mm 2 mps 739 mmHg 90%
    03:00 +4°C° 0 mm 2 mps 739 mmHg 91%
    04:00 +4°C° 0 mm 2 mps 739 mmHg 91%
    05:00 +4°C° 0 mm 2 mps 739 mmHg 91%
    06:00 +4°C° 0 mm 2 mps 739 mmHg 91%
    07:00 +4°C° 0 mm 2 mps 739 mmHg 90%
    08:00 +5°C° 0.1 mm 2 mps 739 mmHg 87%
    09:00 +6°C° 0.1 mm 2 mps 740 mmHg 84%
    10:00 +7°C° 0.1 mm 3 mps 740 mmHg 81%
    11:00 +8°C° 0 mm 3 mps 740 mmHg 77%
    12:00 +10°C° 0 mm 3 mps 739 mmHg 72%
    13:00 +11°C° 0 mm 3 mps 739 mmHg 67%
    14:00 +11°C° 0 mm 3 mps 739 mmHg 69%
    15:00 +11°C° 0 mm 3 mps 739 mmHg 70%
    16:00 +10°C° 0 mm 2 mps 738 mmHg 72%
    17:00 +9°C° 0 mm 2 mps 738 mmHg 77%
    18:00 +8°C° 0 mm 2 mps 739 mmHg 82%
    19:00 +7°C° 0 mm 2 mps 739 mmHg 88%
    20:00 +6°C° 0 mm 2 mps 739 mmHg 88%
    21:00 +6°C° 0 mm 2 mps 739 mmHg 89%
    22:00 +6°C° 0 mm 2 mps 739 mmHg 89%
    23:00 +6°C° 0.1 mm 2 mps 739 mmHg 90%
    Show more